FW6919 Weather Reports


time (UTC)temp
F
wind
direction
speed
knots
gust
knots
rain 1hr
in
rain 24hr
in
rain mn
in
humidity
%
barometer
mb
20260506025613 68 35 9.6 12.2 0.00 0.00 0.00 74 1009.5
20260506025115 68 11 6.1 12.2 0.00 0.00 0.00 74 1009.3
20260506024615 68 30 4.3 12.2 0.00 0.00 0.00 73 1009.1
20260506024115 68 28 5.2 12.2 0.00 0.00 0.00 73 1009.0
20260506023613 69 9 3.5 12.2 0.00 0.00 0.00 73 1008.8
20260506023113 69 9 4.3 9.6 0.00 0.00 0.00 73 1008.8
20260506022614 69 32 7.8 9.6 0.00 0.00 0.00 72 1008.8
20260506022114 69 360 2.6 10.4 0.00 0.00 0.00 72 1008.7
20260506021614 69 27 1.7 10.4 0.00 0.00 0.00 72 1008.4
20260506021112 69 10 7.0 11.3 0.00 0.00 0.00 71 1008.3
20260506020614 69 29 5.2 11.3 0.00 0.00 0.00 71 1008.4
20260506020111 69 26 10.4 11.3 0.00 0.00 0.00 71 1008.3
20260506015610 69 30 7.0 10.4 0.00 0.00 0.00 72 1008.1
20260506015113 70 5 4.3 10.4 0.00 0.00 0.00 72 1007.9
20260506014614 70 25 2.6 10.4 0.00 0.00 0.00 72 1007.6
20260506014113 70 9 8.7 9.6 0.00 0.00 0.00 72 1007.6
20260506013613 71 9 3.5 9.6 0.00 0.00 0.00 71 1007.8
20260506013114 71 9 6.1 9.6 0.00 0.00 0.00 71 1007.7
20260506012613 71 27 2.6 9.6 0.00 0.00 0.00 71 1007.4
20260506012111 71 33 3.5 9.6 0.00 0.00 0.00 71 1007.4
20260506011610 72 5 4.3 9.6 0.00 0.00 0.00 71 1007.2
20260506011111 72 10 1.7 9.6 0.00 0.00 0.00 70 1007.3
20260506010612 72 9 8.7 9.6 0.00 0.00 0.00 70 1007.2
20260506010111 72 9 2.6 10.4 0.00 0.00 0.00 69 1007.2
20260506005611 73 360 1.7 10.4 0.00 0.00 0.00 69 1007.2
20260506005115 73 9 4.3 10.4 0.00 0.00 0.00 69 1007.1
20260506004610 73 13 2.6 11.3 0.00 0.00 0.00 70 1006.7
20260506004112 73 360 4.3 13.0 0.00 0.00 0.00 69 1006.9
20260506003614 74 360 2.6 13.0 0.00 0.00 0.00 69 1006.3
20260506003111 75 11 6.1 13.0 0.00 0.00 0.00 69 1006.2
20260506002611 75 11 7.0 12.2 0.00 0.00 0.00 68 1006.5
20260506002112 76 9 8.7 9.6 0.00 0.00 0.00 68 1006.4
20260506001612 76 360 3.5 10.4 0.00 0.00 0.00 67 1006.2
20260506001114 77 44 4.3 12.2 0.00 0.00 0.00 66 1006.2
20260506000612 77 10 7.0 13.0 0.00 0.00 0.00 65 1006.2
20260506000110 78 360 5.2 13.9 0.00 0.00 0.00 64 1006.0
20260505235612 78 36 3.5 17.4 0.00 0.00 0.00 63 1006.0
20260505235113 78 9 7.8 17.4 0.00 0.00 0.00 63 1005.9
20260505234614 79 10 10.4 13.9 0.00 0.00 0.00 63 1006.0
20260505234110 79 40 10.4 13.9 0.00 0.00 0.00 62 1005.9
20260505233613 80 46 3.5 13.9 0.00 0.00 0.00 63 1005.8
20260505233111 80 10 7.0 13.9 0.00 0.00 0.00 62 1005.8
20260505232613 81 360 4.3 14.8 0.00 0.00 0.00 62 1005.7
20260505232113 81 360 3.5 16.5 0.00 0.00 0.00 61 1005.7
20260505231611 81 360 14.8 16.5 0.00 0.00 0.00 60 1005.9
20260505231111 82 342 10.4 14.8 0.00 0.00 0.00 59 1005.6
20260505230613 82 337 10.4 14.8 0.00 0.00 0.00 58 1005.5
20260505230112 83 302 12.2 14.8 0.00 0.00 0.00 59 1005.7
20260505225613 84 304 7.0 14.8 0.00 0.00 0.00 59 1005.6
20260505225114 84 309 7.0 14.8 0.00 0.00 0.00 59 1005.4
20260505224610 85 307 10.4 14.8 0.00 0.00 0.00 57 1005.2
20260505224111 86 19 7.8 13.9 0.00 0.00 0.00 57 1005.0
20260505223614 86 321 3.5 13.9 0.00 0.00 0.00 56 1005.0
20260505223113 86 60 5.2 13.9 0.00 0.00 0.00 55 1005.0
20260505222611 87 5 7.0 13.9 0.00 0.00 0.00 52 1005.0
20260505222114 87 313 7.0 13.0 0.00 0.00 0.00 51 1004.9
20260505221611 87 331 8.7 13.0 0.00 0.00 0.00 50 1004.8
20260505221113 87 346 7.8 12.2 0.00 0.00 0.00 51 1004.7
20260505220610 87 319 8.7 11.3 0.00 0.00 0.00 50 1004.7
20260505220113 87 318 7.8 13.0 0.00 0.00 0.00 50 1004.5
20260505215614 88 304 7.8 13.9 0.00 0.00 0.00 49 1004.6
20260505215112 89 301 10.4 13.9 0.00 0.00 0.00 50 1004.5
20260505214612 89 337 11.3 13.9 0.00 0.00 0.00 51 1004.6
20260505214111 89 312 4.3 13.0 0.00 0.00 0.00 50 1004.6
20260505213613 90 328 10.4 13.0 0.00 0.00 0.00 49 1004.5
20260505213111 91 281 5.2 12.2 0.00 0.00 0.00 49 1004.6
20260505212614 91 254 1.7 12.2 0.00 0.00 0.00 50 1004.5
20260505212110 91 245 3.5 12.2 0.00 0.00 0.00 49 1004.5
20260505211613 91 294 7.0 11.3 0.00 0.00 0.00 48 1004.6
20260505211112 92 236 2.6 11.3 0.00 0.00 0.00 49 1004.7
20260505210614 92 285 5.2 8.7 0.00 0.00 0.00 50 1004.8
20260505210113 92 234 7.8 8.7 0.00 0.00 0.00 50 1004.8
20260505205613 92 278 2.6 9.6 0.00 0.00 0.00 50 1004.8
20260505205114 91 219 2.6 9.6 0.00 0.00 0.00 50 1004.9
20260505204612 92 275 9.6 9.6 0.00 0.00 0.00 51 1005.0
20260505204111 91 208 4.3 10.4 0.00 0.00 0.00 52 1005.0
20260505203612 90 286 3.5 10.4 0.00 0.00 0.00 54 1005.2
20260505203112 90 236 8.7 12.2 0.00 0.00 0.00 53 1005.2
20260505202611 89 266 6.1 12.2 0.00 0.00 0.00 54 1005.1
20260505202113 89 212 7.8 12.2 0.00 0.00 0.00 55 1005.4
20260505201611 89 203 7.0 9.6 0.00 0.00 0.00 57 1005.5
20260505201113 88 209 7.0 10.4 0.00 0.00 0.00 59 1005.5
20260505200610 88 211 7.8 12.2 0.00 0.00 0.00 58 1005.4
20260505200112 88 234 5.2 14.8 0.00 0.00 0.00 58 1005.5
20260505195612 88 223 4.3 14.8 0.00 0.00 0.00 57 1005.5
20260505195114 89 217 5.2 14.8 0.00 0.00 0.00 57 1005.6
20260505194612 89 169 3.5 13.9 0.00 0.00 0.00 57 1005.5
20260505194113 89 229 6.1 13.0 0.00 0.00 0.00 58 1005.5
20260505193611 88 248 2.6 13.9 0.00 0.00 0.00 57 1005.5
20260505193111 88 247 7.0 13.9 0.00 0.00 0.00 58 1005.5
20260505192544 88 246 9.6 12.2 0.00 0.00 0.00 60 1005.8
20260505192114 87 235 4.3 12.2 0.00 0.00 0.00 61 1005.6
20260505191614 87 236 5.2 12.2 0.00 0.00 0.00 61 1005.5
20260505191114 87 215 11.3 10.4 0.00 0.00 0.00 64 1005.6
20260505190612 86 236 4.3 13.0 0.00 0.00 0.00 64 1005.5
20260505190113 85 177 4.3 13.0 0.00 0.00 0.00 65 1005.6
20260505185613 85 203 5.2 13.0 0.00 0.00 0.00 67 1005.5
20260505185114 84 179 5.2 13.0 0.00 0.00 0.00 67 1005.6
20260505184611 84 190 3.5 13.0 0.00 0.00 0.00 66 1005.6
20260505184112 84 167 10.4 13.0 0.00 0.00 0.00 68 1005.6
20260505183611 84 154 5.2 13.0 0.00 0.00 0.00 68 1005.8
20260505183113 84 225 6.1 13.0 0.00 0.00 0.00 68 1005.7
20260505182615 83 238 11.3 13.0 0.00 0.00 0.00 68 1005.8
20260505182113 83 257 8.7 14.8 0.00 0.00 0.00 69 1005.8
20260505181612 83 225 12.2 14.8 0.00 0.00 0.00 69 1005.9
20260505181115 83 213 4.3 13.9 0.00 0.00 0.00 69 1005.8
20260505180613 82 185 7.0 17.4 0.00 0.00 0.00 70 1005.9
20260505180111 82 209 5.2 17.4 0.00 0.00 0.00 70 1005.9
20260505175613 82 249 3.5 16.5 0.00 0.00 0.00 70 1006.0
20260505175111 82 216 7.8 15.6 0.00 0.00 0.00 70 1005.9
20260505174611 82 202 8.7 14.8 0.00 0.00 0.00 71 1005.9
20260505174111 82 219 7.8 14.8 0.00 0.00 0.00 71 1005.9
20260505173609 82 236 3.5 20.9 0.00 0.00 0.00 71 1005.9
20260505173110 82 214 11.3 20.9 0.00 0.00 0.00 71 1005.9
20260505172636 81 224 6.1 20.9 0.00 0.00 0.00 71 1005.9
20260505172136 82 192 7.8 17.4 0.00 0.00 0.00 71 1005.9
20260505171634 81 219 7.8 17.4 0.00 0.00 0.00 72 1006.0
20260505171135 81 212 5.2 16.5 0.00 0.00 0.00 72 1006.0
20260505170634 81 221 13.9 16.5 0.00 0.00 0.00 71 1005.9
20260505170135 81 242 4.3 18.2 0.00 0.00 0.00 72 1005.9
20260505165633 81 212 5.2 20.0 0.00 0.00 0.00 72 1005.9
20260505165133 81 215 6.1 20.0 0.00 0.00 0.00 71 1005.9
20260505164633 81 209 7.8 12.2 0.00 0.00 0.00 72 1005.8
20260505164134 81 175 6.1 11.3 0.00 0.00 0.00 73 1005.9
20260505163634 80 246 7.0 16.5 0.00 0.00 0.00 76 1006.0
20260505163136 79 259 3.5 18.2 0.00 0.00 0.00 75 1005.9
20260505162644 78 136 7.8 18.2 0.00 0.00 0.00 75 1005.9
20260505162134 79 246 9.6 16.5 0.00 0.00 0.00 75 1005.9
20260505161637 78 220 5.2 17.4 0.00 0.00 0.00 75 1005.9
20260505161134 78 229 6.1 19.1 0.00 0.00 0.00 75 1005.9
20260505160633 78 254 6.1 20.0 0.00 0.00 0.00 75 1005.9
20260505160132 78 227 7.8 20.0 0.00 0.00 0.00 75 1005.8
20260505153133 76 230 7.0 20.0 0.00 0.00 0.00 78 1005.6
20260505152635 76 190 3.5 19.1 0.00 0.00 0.00 78 1005.6
20260505152133 76 195 8.7 16.5 0.00 0.00 0.00 78 1005.6
20260505151632 76 203 7.8 16.5 0.00 0.00 0.00 79 1005.7
20260505151131 76 219 7.8 18.2 0.00 0.00 0.00 79 1005.6
20260505150630 75 211 8.7 20.0 0.00 0.00 0.00 80 1005.6
20260505150133 75 182 4.3 20.0 0.00 0.00 0.00 80 1005.7
20260505140630 74 209 8.7 19.1 0.00 0.00 0.00 82 1005.5
20260505140129 74 40 10.4 19.1 0.00 0.00 0.00 82 1005.5
20260505130129 71 29 15.6 18.2 0.00 0.00 0.00 86 1005.1
20260505124627 71 24 10.4 15.6 0.00 0.00 0.00 87 1005.0
20260505124128 71 23 7.0 13.9 0.00 0.00 0.00 87 1005.0
20260505123628 71 23 7.0 13.9 0.00 0.00 0.00 87 1004.9
20260505123127 70 24 5.2 12.2 0.00 0.00 0.00 87 1005.0
20260505122628 70 22 5.2 13.9 0.00 0.00 0.00 87 1004.9
20260505122128 70 24 3.5 16.5 0.00 0.00 0.00 87 1004.8
20260505121628 70 24 7.0 18.2 0.00 0.00 0.00 87 1004.8
20260505121125 70 23 8.7 18.2 0.00 0.00 0.00 87 1004.6
20260505120626 70 22 7.0 18.2 0.00 0.00 0.00 87 1004.6
20260505120127 70 23 12.2 19.1 0.00 0.00 0.00 87 1004.4
20260505115626 70 22 11.3 19.1 0.00 0.00 0.00 87 1004.4
20260505115125 70 21 4.3 15.6 0.00 0.00 0.00 87 1004.5
20260505114625 70 23 13.0 17.4 0.00 0.00 0.00 87 1004.5
20260505114125 70 24 9.6 17.4 0.00 0.00 0.00 87 1004.3
20260505113625 70 22 7.0 15.6 0.00 0.00 0.00 87 1004.3
20260505113126 70 24 2.6 13.9 0.00 0.00 0.00 87 1004.3
20260505112627 70 20 7.0 16.5 0.00 0.00 0.00 87 1004.3
20260505112127 70 24 5.2 18.2 0.00 0.00 0.00 87 1004.2
20260505111624 70 21 4.3 18.2 0.00 0.00 0.00 87 1004.3
20260505111127 70 21 10.4 18.2 0.00 0.00 0.00 87 1004.2
20260505110625 70 21 17.4 15.6 0.00 0.00 0.00 87 1004.3
20260505110126 70 19 10.4 19.1 0.00 0.00 0.00 87 1004.2
20260505102125 70 22 8.7 21.7 0.00 0.00 0.00 86 1004.2
20260505101624 70 19 10.4 21.7 0.00 0.00 0.00 86 1004.3
20260505101124 70 20 9.6 21.7 0.00 0.00 0.00 86 1004.3
20260505100625 71 19 8.7 20.0 0.00 0.00 0.00 86 1004.4
20260505100126 71 360 1.7 20.0 0.00 0.00 0.00 86 1004.3
20260505095625 71 20 6.1 19.1 0.00 0.00 0.00 86 1004.4
20260505095124 71 24 12.2 19.1 0.00 0.00 0.00 86 1004.5
20260505094626 71 19 7.8 19.1 0.00 0.00 0.00 86 1004.5
20260505094124 71 22 5.2 20.9 0.00 0.00 0.00 86 1004.2
20260505093624 71 22 9.6 20.9 0.00 0.00 0.00 85 1004.3
20260505093123 71 19 7.8 19.1 0.00 0.00 0.00 85 1004.4
20260505092623 71 21 11.3 19.1 0.00 0.00 0.00 85 1004.5
20260505092125 71 23 11.3 19.1 0.00 0.00 0.00 85 1004.6
20260505091623 71 19 9.6 23.5 0.00 0.00 0.00 84 1004.5
20260505091123 71 22 7.0 23.5 0.00 0.00 0.00 84 1004.7
20260505090624 71 20 9.6 21.7 0.00 0.00 0.00 84 1004.7
20260505090126 72 24 8.7 21.7 0.00 0.00 0.00 84 1004.8
20260505085623 72 22 7.8 21.7 0.00 0.00 0.00 84 1004.8
20260505085121 72 22 10.4 20.9 0.00 0.00 0.00 84 1004.7
20260505084622 72 26 7.8 20.9 0.00 0.00 0.00 83 1004.7
20260505084122 72 24 8.7 20.0 0.00 0.00 0.00 83 1004.9
20260505083621 72 23 5.2 21.7 0.00 0.00 0.00 83 1005.0
20260505083121 72 22 7.8 21.7 0.00 0.00 0.00 83 1004.9
20260505082621 72 22 16.5 21.7 0.00 0.00 0.00 83 1005.0
20260505082123 72 24 9.6 18.2 0.00 0.00 0.00 82 1005.0
20260505081623 72 22 7.0 20.0 0.00 0.00 0.00 82 1004.8
20260505081124 72 24 9.6 21.7 0.00 0.00 0.00 82 1004.8
20260505080622 72 19 18.2 21.7 0.00 0.00 0.00 81 1004.9
20260505080122 73 27 3.5 20.0 0.00 0.00 0.00 81 1004.9
20260505075621 73 21 10.4 20.0 0.00 0.00 0.00 81 1004.9
20260505075122 73 22 13.0 21.7 0.00 0.00 0.00 80 1005.0
20260505074621 73 21 10.4 21.7 0.00 0.00 0.00 80 1005.0
20260505074121 73 19 7.8 19.1 0.00 0.00 0.00 80 1005.2
20260505073621 73 20 11.3 19.1 0.00 0.00 0.00 79 1005.2
20260505073120 73 17 7.8 16.5 0.00 0.00 0.00 79 1005.4
20260505072621 73 18 8.7 17.4 0.00 0.00 0.00 78 1005.4
20260505072119 73 19 6.1 20.0 0.00 0.00 0.00 78 1005.5
20260505071619 73 24 7.8 20.0 0.00 0.00 0.00 78 1005.6
20260505071120 74 29 5.2 20.0 0.00 0.00 0.00 77 1005.8
20260505070620 74 21 9.6 18.2 0.00 0.00 0.00 77 1005.8
20260505070121 74 21 7.0 16.5 0.00 0.00 0.00 77 1005.8
20260505065620 74 22 10.4 16.5 0.00 0.00 0.00 77 1006.0
20260505065119 74 24 8.7 17.4 0.00 0.00 0.00 76 1006.0
20260505064620 74 19 6.1 17.4 0.00 0.00 0.00 76 1006.1
20260505064120 74 21 7.8 20.0 0.00 0.00 0.00 76 1006.2
20260505063622 74 22 11.3 20.0 0.00 0.00 0.00 75 1006.0
20260505063120 74 20 13.0 18.2 0.00 0.00 0.00 75 1006.1
20260505062621 74 22 13.0 16.5 0.00 0.00 0.00 75 1006.2
20260505062119 74 19 8.7 19.1 0.00 0.00 0.00 74 1006.2
20260505061618 75 24 4.3 19.1 0.00 0.00 0.00 74 1006.2
20260505061118 75 22 9.6 18.2 0.00 0.00 0.00 73 1006.1
20260505060618 75 24 7.0 18.2 0.00 0.00 0.00 73 1006.2
20260505060118 75 26 13.0 18.2 0.00 0.00 0.00 73 1006.2
20260505055620 75 26 5.2 17.4 0.00 0.00 0.00 72 1006.3
20260505055119 76 30 12.2 17.4 0.00 0.00 0.00 72 1006.3
20260505054618 76 28 11.3 20.0 0.00 0.00 0.00 71 1006.2
20260505054118 76 26 7.8 20.0 0.00 0.00 0.00 71 1006.1
20260505053618 76 27 7.8 21.7 0.00 0.00 0.00 71 1006.1
20260505053118 76 32 9.6 21.7 0.00 0.00 0.00 71 1006.0
20260505052619 76 32 10.4 20.9 0.00 0.00 0.00 71 1006.2
20260505052118 76 34 13.0 16.5 0.00 0.00 0.00 71 1006.2
20260505051619 76 34 8.7 21.7 0.00 0.00 0.00 71 1006.1
20260505051117 76 31 8.7 21.7 0.00 0.00 0.00 71 1006.1
20260505050617 76 26 14.8 20.0 0.00 0.00 0.00 71 1006.2
20260505050117 76 30 7.8 17.4 0.00 0.00 0.00 71 1006.3
20260505041617 75 21 11.3 16.5 0.00 0.00 0.00 73 1006.5
20260505041116 75 28 7.0 16.5 0.00 0.00 0.00 73 1006.6
20260505040617 75 22 9.6 15.6 0.00 0.00 0.00 73 1006.5
20260505040115 75 21 9.6 16.5 0.00 0.00 0.00 73 1006.5
20260505035615 75 23 7.0 18.2 0.00 0.00 0.00 73 1006.6
20260505035115 75 22 8.7 18.2 0.00 0.00 0.00 73 1006.6
20260505034617 75 22 5.2 13.9 0.00 0.00 0.00 73 1006.6
20260505034115 75 19 7.0 13.9 0.00 0.00 0.00 72 1006.6
20260505033615 76 24 8.7 14.8 0.00 0.00 0.00 72 1006.4
20260505033115 76 22 8.7 14.8 0.00 0.00 0.00 72 1006.4
20260505032615 76 23 7.8 14.8 0.00 0.00 0.00 72 1006.5
20260505032114 76 29 7.8 14.8 0.00 0.00 0.00 72 1006.4
20260505031616 76 30 7.8 14.8 0.00 0.00 0.00 72 1006.4
20260505031114 76 25 9.6 22.6 0.00 0.00 0.00 72 1006.5
20260505030614 76 24 9.6 22.6 0.00 0.00 0.00 72 1006.5
20260505030114 76 19 6.1 14.8 0.00 0.00 0.00 72 1006.6